[[{"header":{"parameterUnit":"m.s-1","parameterCategory":1,"la1":30.2991,"la2":30.254,"lo1":-89.0895,"lo2":-89.0444,"dy":0.0017,"dx":0.0017,"nx":28,"ny":28,"refTime":"2025-03-21T21:00:00:Z","depth":0,"parameterNumber":2,"parameterNumberName":"U-component_of_WINDS"},"data":[0,0,0,0,0,0,0,0,0,0,0,0,0,0,0,0,0,0,0,0,0,0,0,0,0,0,0,0,0,0,0,0,0,0,0,0,0,0,0,0,0,0,0,0,0,0,0,0,0,0,0,0,0,0,0,0,0,0,1.4001,1.4004,0,1.4223,1.4225,1.4228,1.4304,1.4303,1.4302,1.4301,1.4528,1.4534,1.4541,0,0,0,0,0,0,0,0,0,0,0,0,0,1.3642,1.3648,1.4001,1.4004,1.4007,1.4222,1.4225,1.4228,1.4304,1.4303,1.4302,1.4301,1.4525,1.4533,1.4542,0,0,0,0,0,0,0,0,0,0,0,0,0,1.3824,1.365,1.4,1.407,1.4079,1.4222,1.4225,1.4229,1.4304,1.4303,1.4302,1.43,1.4523,1.4533,1.4543,1.4632,0,0,1.4574,1.4578,0,0,0,0,0,0,0,0,1.3814,1.3837,1.4057,1.4066,1.4076,1.4234,1.4182,1.4364,1.4305,1.4219,1.4301,1.43,1.4431,1.4449,1.4493,1.4643,1.4652,1.4575,1.4581,1.4585,1.4588,0,0,0,0,0,0,0,1.3801,1.3828,1.4089,1.406,1.4072,1.409,1.4115,1.4217,1.4329,1.4226,1.4232,1.4257,1.4436,1.4483,1.4499,1.4656,1.4575,1.4584,1.459,1.4594,1.4889,1.489,0,0,0,0,0,0,1.3777,1.3817,1.4082,1.4095,1.3939,1.4098,1.4125,1.4185,1.4328,1.4349,1.4258,1.426,1.4466,1.4487,1.4507,1.4621,1.4585,1.4595,1.4601,1.4887,1.4889,1.4891,0,0,0,0,0,0,1.3769,1.38,1.4073,1.3958,1.3994,1.4105,1.4172,1.419,1.4237,1.4353,1.4373,1.4286,1.4466,1.4493,1.46,1.4629,1.46,1.4609,1.4885,1.4888,1.489,1.4848,0,0,0,0,0,0,1.3758,1.3796,1.3832,1.3958,1.4,1.4162,1.4173,1.4195,1.4255,1.4259,1.4384,1.4404,1.4467,1.4584,1.461,1.4643,1.4617,1.4883,1.4886,1.4889,1.4847,1.4849,1.485,0,0,0,0,0,1.3745,1.3811,1.3833,1.3865,1.4047,1.4164,1.4188,1.4259,1.4257,1.4293,1.4367,1.44,1.4622,1.4595,1.4625,1.4661,1.4881,1.4885,1.4889,1.4847,1.4849,1.485,0,0,0,0,0,0,1.3685,1.3829,1.3855,1.3964,1.4051,1.4176,1.4224,1.4259,1.4349,1.4349,1.4434,1.4462,1.4562,1.4623,1.459,1.4754,1.4754,1.4763,1.4711,1.4714,1.4715,1.4698,1.4625,0,0,0,0,0,1.3684,1.3768,1.3889,1.3973,1.4016,1.4112,1.4166,1.4214,1.4307,1.4344,1.4427,1.4516,1.4606,1.4663,1.4753,1.4857,1.4885,1.4896,1.4897,1.4898,1.4905,1.4964,1.497,1.4903,1.4903,1.4903,0,0,1.3684,1.3773,1.382,1.3964,1.4037,1.4121,1.4143,1.4231,1.4294,1.4358,1.4464,1.4527,1.4633,1.4738,1.4789,1.4792,1.493,1.4903,1.4902,1.491,1.4969,1.4975,1.498,1.4906,1.4905,1.4905,0,0,1.3726,1.3802,1.388,1.3953,1.4064,1.4127,1.4146,1.4266,1.4311,1.4419,1.4468,1.4544,1.4698,1.4771,1.4828,1.4897,1.493,1.4923,1.493,1.4987,1.4992,1.4997,1.5021,1.5028,1.493,1.493,1.493,0,1.3711,1.384,1.3916,1.4002,1.4063,1.4125,1.4204,1.4271,1.4405,1.4445,1.4446,1.464,1.4715,1.4838,1.4855,1.49,1.4923,1.4909,1.4985,1.4991,1.4997,1.502,1.5029,1.4929,1.4929,1.4929,1.4929,0,1.3816,1.3905,1.3955,1.4082,1.4149,1.4231,1.4319,1.4378,1.4419,1.4482,1.4591,1.4684,1.4793,1.4826,1.4867,1.4955,1.4953,1.4968,1.4969,1.5,1.5024,1.5034,1.4927,1.4927,1.4928,1.4928,0,0,1.3826,1.3995,1.4012,1.407,1.4196,1.4266,1.4351,1.4457,1.4505,1.4595,1.4668,1.4796,1.4811,1.4876,1.4926,1.4976,1.5023,1.4986,1.4989,1.4989,1.5124,1.5111,1.512,1.5046,1.5048,1.505,1.5115,0,1.3884,1.4038,1.4109,1.4231,1.4313,1.4373,1.4447,1.4532,1.4593,1.4671,1.4739,1.4829,1.4842,1.4881,1.4933,1.5006,1.5052,1.5003,1.5114,1.5117,1.5085,1.5133,1.512,1.5177,1.5125,1.5127,1.5128,0,1.3972,1.4062,1.4192,1.4309,1.4346,1.4411,1.4514,1.4588,1.4686,1.4727,1.4798,1.4847,1.4937,1.4932,1.5058,1.5023,1.5073,1.5115,1.5119,1.5132,1.5124,1.5146,1.5197,1.5205,1.5143,1.5142,1.5141,0,1.3965,1.4119,1.4217,1.4265,1.4403,1.4447,1.4507,1.4603,1.4662,1.4752,1.4791,1.4891,1.4945,1.502,1.5094,1.5083,1.5212,1.5213,1.5248,1.5246,1.5272,1.5269,1.5331,1.5305,1.5305,1.5305,1.5304,0,1.4022,1.4099,1.4216,1.4275,1.4364,1.4444,1.4529,1.4592,1.4677,1.4751,1.4809,1.4876,1.4969,1.5048,1.5107,1.5201,1.5225,1.5261,1.5275,1.5255,1.5251,1.5289,1.5286,1.5307,1.5306,1.5306,1.5306,0,1.4028,1.411,1.422,1.4342,1.4374,1.4434,1.4538,1.4598,1.4662,1.4754,1.478,1.488,1.4976,1.5057,1.5184,1.5223,1.532,1.5338,1.5287,1.5295,1.5325,1.5321,1.5413,1.5428,1.5392,1.5392,1.5392,0,1.4059,1.412,1.4248,1.4301,1.436,1.4445,1.4506,1.4587,1.4648,1.4763,1.4809,1.4909,1.4993,1.5144,1.5228,1.5324,1.5344,1.537,1.5359,1.5337,1.5344,1.5339,1.5345,1.537,1.537,1.537,1.537,0,1.4104,1.4141,1.4227,1.4327,1.4397,1.448,1.4564,1.4604,1.47,1.4766,1.4865,1.493,1.5059,1.5157,1.5263,1.5324,1.5363,1.5373,1.5386,1.5366,1.5334,1.5351,1.5288,1.537,1.537,1.537,1.537,1.537,1.4123,1.418,1.4279,1.4372,1.4444,1.4521,1.4583,1.4655,1.4739,1.485,1.4893,1.4993,1.5089,1.5235,1.5296,1.5376,1.5381,1.54,1.5405,1.5409,1.5405,1.5321,1.5396,1.5396,1.5396,1.5396,1.5396,0,1.4171,1.4237,1.4322,1.4438,1.4511,1.4542,1.4636,1.4695,1.4783,1.4869,1.4951,1.5064,1.516,1.5251,1.5351,1.5397,1.5418,1.5421,1.5418,1.5431,1.5395,1.5373,1.5403,1.5403,1.5403,1.5403,1.5403,1.5403,1.4204,1.4301,1.435,1.4483,1.4549,1.4648,1.4699,1.477,1.4839,1.4963,1.5043,1.5102,1.519,1.5297,1.5386,1.5411,1.5444,1.5442,1.5471,1.5436,1.5434,1.5432,1.5412,1.5449,1.5449,1.5501,1.5502,1.5502]},{"header":{"parameterUnit":"m.s-1","parameterCategory":1,"la1":30.2991,"la2":30.254,"lo1":-89.0895,"lo2":-89.0444,"dy":0.0017,"dx":0.0017,"nx":28,"ny":28,"refTime":"2025-03-21T21:00:00:Z","depth":0,"parameterNumber":3,"parameterNumberName":"V-component_of_WINDS"},"data":[0,0,0,0,0,0,0,0,0,0,0,0,0,0,0,0,0,0,0,0,0,0,0,0,0,0,0,0,0,0,0,0,0,0,0,0,0,0,0,0,0,0,0,0,0,0,0,0,0,0,0,0,0,0,0,0,0,0,3.6281,3.628,0,3.625,3.625,3.6249,3.6195,3.6194,3.6193,3.6192,3.6161,3.6161,3.6161,0,0,0,0,0,0,0,0,0,0,0,0,0,3.6292,3.6292,3.6281,3.628,3.628,3.625,3.625,3.6249,3.6195,3.6194,3.6193,3.6191,3.6161,3.6161,3.6161,0,0,0,0,0,0,0,0,0,0,0,0,0,3.6277,3.6292,3.6281,3.6249,3.6246,3.625,3.625,3.6249,3.6195,3.6194,3.6192,3.6191,3.6161,3.6161,3.6161,3.6194,0,0,3.6162,3.6162,0,0,0,0,0,0,0,0,3.6278,3.6277,3.6254,3.6251,3.6248,3.6225,3.6242,3.6231,3.6196,3.6215,3.6192,3.619,3.6183,3.6182,3.6179,3.6192,3.6191,3.6162,3.6162,3.6162,3.6162,0,0,0,0,0,0,0,3.6279,3.6278,3.6269,3.6254,3.625,3.6237,3.6233,3.624,3.6208,3.6213,3.6209,3.6206,3.6181,3.6179,3.6178,3.619,3.6162,3.6162,3.6162,3.6162,3.6227,3.6229,0,0,0,0,0,0,3.6285,3.6279,3.627,3.6268,3.6259,3.6238,3.6233,3.6234,3.6208,3.6202,3.6207,3.6204,3.618,3.6178,3.6177,3.6212,3.6162,3.6162,3.6162,3.6226,3.6227,3.6229,0,0,0,0,0,0,3.6285,3.6284,3.6271,3.6272,3.6269,3.6239,3.624,3.6234,3.6232,3.6204,3.6198,3.6211,3.6178,3.6177,3.619,3.621,3.6162,3.6163,3.6224,3.6226,3.6228,3.6284,0,0,0,0,0,0,3.6286,3.6285,3.6297,3.6273,3.627,3.6284,3.6241,3.6234,3.6232,3.6227,3.6206,3.6201,3.6177,3.619,3.619,3.621,3.6163,3.6222,3.6225,3.6228,3.628,3.6288,3.6294,0,0,0,0,0,3.6286,3.6314,3.6298,3.6297,3.6284,3.6285,3.6284,3.6256,3.6234,3.6246,3.6228,3.6201,3.6208,3.6191,3.6191,3.6212,3.622,3.6224,3.6227,3.6277,3.6286,3.6294,0,0,0,0,0,0,3.6342,3.631,3.6292,3.6313,3.6302,3.6276,3.629,3.6267,3.6262,3.6258,3.6224,3.6219,3.6237,3.6225,3.6207,3.6241,3.621,3.6214,3.6248,3.6256,3.6263,3.6265,3.6163,0,0,0,0,0,3.6356,3.636,3.6333,3.6354,3.6349,3.6321,3.632,3.63,3.6288,3.6283,3.6266,3.6255,3.6254,3.6255,3.6253,3.6278,3.6272,3.6292,3.6299,3.6305,3.6309,3.632,3.6328,3.6241,3.6241,3.6241,0,0,3.6387,3.637,3.6374,3.6364,3.6354,3.6358,3.6317,3.6324,3.6327,3.6284,3.6295,3.6282,3.6267,3.6286,3.6294,3.6278,3.6332,3.631,3.6315,3.6315,3.6325,3.6333,3.634,3.6243,3.6243,3.6243,0,0,3.6444,3.6432,3.6447,3.6437,3.6422,3.6403,3.6407,3.6384,3.6374,3.6384,3.6352,3.6355,3.6355,3.6346,3.6341,3.6394,3.6369,3.6395,3.6432,3.6444,3.645,3.6456,3.6474,3.6481,3.6398,3.6398,3.6398,0,3.6483,3.6488,3.6458,3.6467,3.6463,3.6424,3.6439,3.6431,3.6416,3.6414,3.6396,3.6395,3.6383,3.6399,3.6411,3.6409,3.6412,3.6396,3.6452,3.6458,3.6463,3.6479,3.6486,3.6401,3.6401,3.6401,3.6401,0,3.6537,3.6542,3.6556,3.6542,3.654,3.6552,3.6523,3.6525,3.6505,3.6487,3.6498,3.6482,3.6475,3.6478,3.6459,3.6491,3.6481,3.6458,3.6426,3.6475,3.649,3.6496,3.6406,3.6405,3.6404,3.6403,0,0,3.6628,3.6597,3.6602,3.6595,3.6575,3.6577,3.6587,3.6581,3.6583,3.6573,3.658,3.6581,3.656,3.6555,3.6534,3.6544,3.6586,3.652,3.6519,3.6532,3.6619,3.6636,3.6644,3.657,3.6571,3.6572,3.662,0,3.668,3.6695,3.6668,3.6689,3.6692,3.6656,3.6664,3.6653,3.6637,3.6637,3.662,3.662,3.6592,3.6589,3.6597,3.6579,3.6603,3.6575,3.6575,3.6575,3.6579,3.6651,3.6669,3.6715,3.6626,3.6627,3.6627,0,3.6742,3.6736,3.6757,3.6735,3.6735,3.6743,3.6735,3.6736,3.6722,3.671,3.6704,3.6679,3.6687,3.6657,3.6666,3.6648,3.6647,3.6638,3.6639,3.6637,3.6604,3.6651,3.673,3.6736,3.6637,3.6636,3.6635,0,3.6805,3.6801,3.6814,3.6809,3.6783,3.679,3.678,3.6764,3.6762,3.6754,3.6752,3.6746,3.6743,3.6739,3.6713,3.6693,3.6725,3.6693,3.6715,3.6715,3.6722,3.6722,3.6801,3.6723,3.6723,3.6723,3.6723,0,3.6865,3.6879,3.6841,3.6849,3.6864,3.6833,3.6848,3.6834,3.6821,3.6824,3.6793,3.6797,3.6763,3.6763,3.6743,3.6754,3.6753,3.6743,3.6737,3.6745,3.6746,3.6743,3.6738,3.6725,3.6724,3.6724,3.6724,0,3.6937,3.6912,3.6923,3.6898,3.6892,3.6904,3.6882,3.6888,3.687,3.6875,3.6875,3.6847,3.6845,3.6819,3.6813,3.6799,3.6817,3.6806,3.6822,3.6818,3.6841,3.6838,3.6919,3.6928,3.6846,3.6847,3.6847,0,3.6976,3.6986,3.6963,3.6963,3.6954,3.6955,3.6952,3.6922,3.6921,3.6905,3.6912,3.6909,3.6904,3.6903,3.6882,3.6877,3.6864,3.6893,3.6863,3.6871,3.6863,3.6863,3.6863,3.6899,3.69,3.6901,3.6902,0,3.7049,3.7036,3.7033,3.7026,3.7024,3.7017,3.7008,3.701,3.6977,3.6977,3.6975,3.6971,3.6964,3.696,3.6951,3.694,3.6915,3.6912,3.6916,3.6924,3.6932,3.6927,3.6838,3.691,3.6909,3.6908,3.6908,3.6908,3.7105,3.7112,3.7096,3.7094,3.7084,3.7076,3.708,3.7062,3.706,3.7052,3.7035,3.7035,3.702,3.7005,3.6996,3.6996,3.6981,3.6988,3.6989,3.6991,3.6995,3.6933,3.6994,3.6994,3.6994,3.6994,3.6993,0,3.7174,3.7162,3.7161,3.7149,3.7147,3.7125,3.7113,3.7113,3.7114,3.7102,3.7098,3.7096,3.7092,3.707,3.7064,3.7068,3.7056,3.7067,3.7066,3.7063,3.7009,3.7006,3.7076,3.7076,3.7076,3.7076,3.7076,3.7076,3.721,3.7221,3.7206,3.7211,3.7198,3.7199,3.7194,3.7187,3.7177,3.7175,3.7172,3.7158,3.7142,3.7134,3.7129,3.7123,3.7121,3.7136,3.7126,3.7075,3.7067,3.706,3.7056,3.7136,3.7136,3.7179,3.718,3.718]}]]